Home > Time Zones > World Clock > Weather > Iran > Yazd > Past weeks

Flag for Iran Weather past 2 weeks in Yazd, Iran

Now
99 °F

Sunny.


Feels Like: 93 °F
Forecast: 76 / 101 °F
Wind: 14 mph from Northeast

Location: Yazd Airport

Current Time: Jul 7, 2015 at 8:38:29 PM

Latest Report: Jul 7, 2015 at 8:00 PM


Visibility: 10 mi

Pressure: 29.83 "Hg (26.08 "Hg at 1218m altitude)

Humidity: 6%

Dew point: 19 °F

Location of YazdLocation

Historic Weather in Yazd — Graph

°F

Yazd temperature yesterday

Maximum temperature yesterday: 104 °F (at 4:30 PM)
Minimum temperature yesterday: 84 °F (at 6:30 AM)
Average temperature yesterday: 95 °F

Past Weeks' High & Low Weather Summary

 TemperatureHumidityPressure
High109 °F (Jun 30, 5:00 PM)25% (Jul 5, 8:00 AM)30.07 "Hg (Jul 5, 8:00 AM)
Low77 °F (Jun 25, 7:00 AM)4% (Jun 23, 4:00 PM)29.50 "Hg (Jun 26, 5:00 PM)
Average96 °F9%29.83 "Hg
* Reported Jun 22 7:30 PM — Jul 7 7:30 PM, Yazd, Weather by CustomWeather, © 2015

Note: Actual official high and low records may vary slightly from our data, if they occured in-between our weather recording intervals... More about our weather records

Advertising

Yazd weather history for previous 24 hours

 ConditionsComfort  
Time TempWeatherWind HumidityBarometerVisibility
7:30 PM
Tue, Jul 7
99 °FSunny.14 mph6%29.80 "Hg10 mi
7:00 PM100 °FSunny.12 mph6%29.80 "Hg10 mi
6:30 PM102 °FSunny.12 mph5%29.80 "Hg10 mi
6:00 PM102 °FSunny.9 mph5%29.80 "Hg10 mi
5:30 PM102 °FSunny.12 mph6%29.80 "Hg10 mi
5:00 PM102 °FSunny.12 mph6%29.80 "Hg10 mi
4:30 PM104 °FSunny.14 mph6%29.80 "Hg10 mi
4:00 PM104 °FPassing clouds.9 mph6%29.80 "HgN/A
3:30 PM104 °FPassing clouds.7 mph6%29.80 "HgN/A
3:00 PM104 °FPassing clouds.12 mph6%29.80 "HgN/A
2:30 PM102 °FPassing clouds.5 mph6%29.80 "HgN/A
2:00 PM102 °FSunny.7 mph7%29.83 "Hg10 mi
1:30 PM102 °FSunny.7 mph7%29.83 "Hg10 mi
1:00 PM100 °FSunny.7 mph7%29.86 "Hg10 mi
12:30 PM100 °FSunny.5 mph7%29.86 "Hg10 mi
12:00 PM100 °FSunny.12 mph7%29.86 "Hg10 mi
11:30 AM99 °FSunny.12 mph8%29.86 "Hg10 mi
11:00 AM99 °FSunny.7 mph9%29.89 "Hg10 mi
10:30 AM95 °FSunny.7 mph11%29.89 "Hg10 mi
10:00 AM93 °FSunny.9 mph11%29.89 "Hg10 mi
9:30 AM93 °FSunny.9 mph11%29.89 "Hg10 mi
9:00 AM93 °FSunny.5 mph11%29.89 "Hg10 mi
8:20 AM90 °FSunny.7 mph13%29.86 "Hg10 mi
8:00 AM88 °FSunny.7 mph13%29.89 "Hg10 mi
7:00 AM82 °FClear.2 mph17%29.89 "Hg10 mi
6:30 AM81 °FClear.No wind17%29.86 "Hg10 mi
6:00 AM81 °FClear.7 mph17%29.86 "Hg10 mi
5:30 AM82 °FClear.2 mph16%29.86 "Hg10 mi
4:30 AM84 °FClear.7 mph14%29.83 "Hg10 mi
3:30 AM86 °FClear.5 mph14%29.83 "Hg10 mi
2:30 AM90 °FClear.5 mph12%29.86 "Hg10 mi
1:30 AM90 °FPassing clouds.12 mph13%29.83 "HgN/A
12:30 AM91 °FPassing clouds.7 mph12%29.86 "HgN/A
12:00 AM93 °FPassing clouds.5 mph11%29.86 "HgN/A
11:30 PM
Mon, Jul 6
95 °FPassing clouds.2 mph10%29.86 "HgN/A
11:00 PM95 °FPassing clouds.7 mph10%29.86 "HgN/A
10:30 PM97 °FPassing clouds.12 mph9%29.86 "HgN/A
10:00 PM97 °FPassing clouds.7 mph9%29.86 "HgN/A
9:30 PM99 °FScattered clouds.5 mph9%29.86 "HgN/A
9:00 PM99 °FScattered clouds.5 mph9%29.86 "HgN/A
8:30 PM100 °FScattered clouds.7 mph8%29.83 "HgN/A
8:00 PM100 °FPartly sunny.7 mph8%29.83 "HgN/A
Weather by CustomWeather, © 2015

See weather overviewHow to use our weather pages